{"data":{"norad_id":59449,"intl_designator":"2024-066H","name":"HAWK-8C","alt_names":[],"object_type":"PAYLOAD","status":"ACTIVE","operator":null,"country":"US","launch_date":"2024-04-07","launch_site_code":"AFETR","launch_vehicle":null,"mission":null,"orbit_class":"UNKNOWN","rcs_meters":null,"size_class":null,"mass_kg":null,"dimensions":null,"purposes":[],"wikipedia_slug":null,"has_3d_model":false,"image_url":null,"decayed_at":null,"tle_current":{"epoch":"2026-05-25T01:17:11.369184Z","epoch_age_seconds":64302,"freshness":"FRESH","line1":"1 59449U 24066H   26145.05360381  .00001028  00000+0  10229-3 0  9990","line2":"2 59449  45.6093  37.1704 0003444 294.2132  65.8389 14.99022004116356","mean_motion":14.99022004,"eccentricity":0.0003444,"inclination_deg":45.6093,"raan_deg":37.1704,"arg_perigee_deg":294.2132,"mean_anomaly_deg":65.8389,"bstar":0.00010229,"rev_number":11635,"period_min":96.062632580275,"perigee_km":567.52383922841,"apogee_km":572.30965865068,"semimajor_km":6948.0537489395,"source":"CELESTRAK","updated_at":"2026-05-25T13:38:01.426095Z"}}}